Weather History for Marathon, FL

Change the Weather History Date:

Tuesday, January 29, 2013

  Actual Average Record
Temperature  
Mean Temperature 78 °F 70 °F  
Max Temperature 82 °F 76 °F 83 °F (2014)
Min Temperature 74 °F 65 °F 56 °F (2011)
Degree Days  
Heating Degree Days 0 1  
Month to date heating degree days 0 38  
Since 1 July heating degree days 6 59  
Cooling Degree Days 13 6  
Month to date cooling degree days 306 174  
Year to date cooling degree days 306 174  
Growing Degree Days 28 (Base 50)    
Moisture  
Dew Point 65 °F    
Average Humidity 66    
Maximum Humidity 74    
Minimum Humidity 58    
Precipitation  
Precipitation T in 0.06 in 1.34 in (2014)
Month to date precipitation 0.54 1.48  
Year to date precipitation 0.54 1.48  
Snow  
Snow 0.00 in - - ()
Month to date snowfall 0.0  
Since 1 July snowfall 0.0  
Snow Depth 0.00 in    
Sea Level Pressure  
Sea Level Pressure 30.16 in    
Wind  
Wind Speed 9 mph (ESE)    
Max Wind Speed 14 mph    
Max Gust Speed 23 mph    
Visibility 10 miles    
Events Rain    
T = Trace of Precipitation, MM = Missing Value Source: NWS Daily Summary

Daily Weather History Graph

Daily Weather History Graph

Search for Another Location

Airport:

Trip Planner

Search our weather history database for the weather conditions in past years. The results will help you decide how hot, cold, wet, or windy it might be!

Date:

Astronomy

Jan. 29, 2013 Rise Set
Actual Time 7:07 AM EST 6:07 PM EST
Civil Twilight 6:43 AM EST 6:31 PM EST
Nautical Twilight 6:16 AM EST 6:58 PM EST
Astronomical Twilight 5:49 AM EST 7:26 PM EST
Moon 8:37 PM EST (1/29) 8:25 AM EST (1/29)
Length of Visible Light 11h 47m
Length of Day
11h 00m
Waning Gibbous, 94% of the Moon is Illuminated
Jan 29
Waning Gibbous
Feb 3
Last Quarter
Feb 10
New
Feb 17
First Quarter
Feb 25
Full

Hourly Weather History & Observations

Time (EST) Temp. Heat Index Dew Point Humidity Pressure Visibility Wind Dir Wind Speed Gust Speed Precip Events Conditions
12:53 AM 75.9 °F - 64.9 °F 69% 30.20 in 10.0 mi ESE 10.4 mph 17.3 mph N/A   Overcast
1:53 AM 75.9 °F - 64.0 °F 67% 30.19 in 10.0 mi ESE 8.1 mph - N/A   Overcast
2:53 AM 75.0 °F - 64.0 °F 69% 30.18 in 10.0 mi ESE 9.2 mph - N/A   Mostly Cloudy
3:53 AM 75.0 °F - 64.0 °F 69% 30.17 in 10.0 mi ESE 10.4 mph 17.3 mph N/A   Partly Cloudy
4:53 AM 75.0 °F - 63.0 °F 66% 30.16 in 10.0 mi ESE 10.4 mph 16.1 mph N/A   Clear
5:53 AM 73.9 °F - 64.0 °F 71% 30.17 in 10.0 mi ESE 9.2 mph 17.3 mph N/A   Scattered Clouds
6:53 AM 73.9 °F - 64.0 °F 71% 30.18 in 10.0 mi ESE 10.4 mph - N/A   Partly Cloudy
7:53 AM 75.0 °F - 64.9 °F 71% 30.19 in 10.0 mi ESE 8.1 mph - N/A   Scattered Clouds
8:53 AM 77.0 °F - 66.0 °F 69% 30.20 in 10.0 mi ESE 6.9 mph - N/A   Mostly Cloudy
9:53 AM 78.1 °F - 66.0 °F 66% 30.21 in 10.0 mi ESE 6.9 mph - N/A   Scattered Clouds
10:15 AM 80.6 °F 82.7 °F 66.2 °F 61% 30.21 in 10.0 mi ESE 8.1 mph - N/A   Mostly Cloudy
10:24 AM 78.8 °F - 66.2 °F 65% 30.21 in 10.0 mi ESE 8.1 mph - N/A   Scattered Clouds
10:53 AM 80.1 °F 82.3 °F 66.9 °F 64% 30.21 in 10.0 mi ESE 6.9 mph - N/A   Scattered Clouds
11:53 AM 81.0 °F 83.3 °F 66.9 °F 62% 30.19 in 10.0 mi Variable 6.9 mph 17.3 mph N/A   Scattered Clouds
12:53 PM 82.0 °F 84.1 °F 66.0 °F 58% 30.16 in 10.0 mi ESE 8.1 mph 16.1 mph N/A   Clear
1:53 PM 80.1 °F 82.1 °F 66.0 °F 62% 30.13 in 10.0 mi ESE 9.2 mph 17.3 mph N/A   Partly Cloudy
2:53 PM 79.0 °F - 66.0 °F 64% 30.12 in 10.0 mi ESE 11.5 mph 18.4 mph N/A   Scattered Clouds
3:53 PM 79.0 °F - 66.9 °F 66% 30.11 in 10.0 mi ESE 8.1 mph 20.7 mph N/A   Mostly Cloudy
4:53 PM 75.9 °F - 68.0 °F 76% 30.11 in 6.0 mi ESE 8.1 mph 17.3 mph 0.00 in Rain Light Rain
5:53 PM 75.9 °F - 66.0 °F 71% 30.12 in 10.0 mi ESE 10.4 mph 18.4 mph 0.00 in   Scattered Clouds
6:53 PM 75.9 °F - 66.0 °F 71% 30.13 in 10.0 mi East 9.2 mph - N/A   Clear
7:53 PM 75.0 °F - 66.0 °F 73% 30.13 in 10.0 mi East 8.1 mph - N/A   Clear
8:53 PM 75.0 °F - 64.0 °F 69% 30.13 in 10.0 mi ESE 6.9 mph - N/A   Clear
9:53 PM 75.0 °F - 64.0 °F 69% 30.12 in 10.0 mi ESE 9.2 mph 16.1 mph N/A   Clear
10:53 PM 75.0 °F - 63.0 °F 66% 30.13 in 10.0 mi ESE 9.2 mph - N/A   Clear
11:53 PM 75.0 °F - 63.0 °F 66% 30.12 in 10.0 mi ESE 10.4 mph 17.3 mph N/A   Partly Cloudy